Location: Unspecified
(0.0000°N, 0.0000°E)
Time: 17:55:35
(UTC+00:00)

GONETS M 13 (M23) - Pass Details

Date: 11 June 2023
Orbit: 1484 x 1504 km, 82.5° (Epoch: 27 September)

Event Time Altitude Azimuth Distance (km) Brightness Sun altitude
Rises 18:48:37 0° 346° (NNW) 4,606 ? -11.2°
Reaches altitude 10° 18:51:35 10° 341° (NNW) 3,626 ? -11.9°
Maximum altitude 18:59:57 53° 267° (W) 1,773 ? -13.8°
Drops below altitude 10° 19:08:22 10° 192° (SSW) 3,626 ? -15.8°
Sets 19:11:21 0° 187° (S) 4,608 ? -16.4°
